Location: Pebble Beach Sunset Acres
(33.0837°N, 96.4508°W)
Time: 02:28:24
(UTC+00:00)

N. Korean satellite - Visible Passes

Search period start: 18 May 2022 00:00
Search period end: 28 May 2022 00:00
Orbit: 439 x 478 km, 97.3° (Epoch: 16 May)

Date Brightness Start Highest point End Pass type
(mag) Time Alt. Az. Time Alt. Az. Time Alt. Az.
18 May 9.1 10:56:23 10° NE 10:59:13 22° E 11:02:00 10° SSE visible
24 May 9.4 10:48:18 10° NE 10:50:38 17° E 10:52:56 10° SE visible
27 May 9.5 10:43:53 10° ENE 10:45:51 14° E 10:47:47 10° SE visible
